Simultaneous Nadir Overpasses (SNOs) Predictions

Prediction of SNOs between GOES-16 and NPP Satellite Orbit:

Table of predicted SNOs for the next 14.0 days since TLE Epoch: 10/12/2024
Index Date Time (GOES-16) GOES-16 Lat,Lon NPP Lat,Lon Distance(km) Time Diff (sec)
1 10/13/2024 06:41:28 0.04, -75.21 0.98, -79.36 473.75 80
2 10/14/2024 06:25:25 0.04, -75.21 -0.04, -74.83 42.90 80
3 10/16/2024 18:25:58 -0.03, -75.24 -0.13, -75.62 42.69 80
4 10/17/2024 18:09:55 -0.04, -75.25 0.91, -71.09 474.67 80
5 10/19/2024 06:29:04 0.04, -75.26 0.26, -76.37 125.53 80
6 10/20/2024 06:13:00 0.04, -75.28 -0.73, -71.84 391.97 80
7 10/21/2024 18:32:17 -0.03, -75.30 -0.42, -77.15 209.91 80
8 10/22/2024 18:16:13 -0.03, -75.32 0.59, -72.62 307.96 80
9 10/24/2024 06:38:01 0.02, -75.34 0.60, -77.89 291.02 80
10 10/25/2024 06:16:36 0.02, -75.35 -0.41, -73.36 227.38 80
